When you browse on this site, cookies collect data to enhance your experience and personalize the content and advertising you see.
Visit our Privacy Policy to learn more. By continuing to use the site, you agree to this use of cookies and data.
  • Em Portugal
  • Lista de países
  • Para 7 dias
  • Temperatura da água
  • Mapa do tempo
  • Widgets de tempo
  • user-avatar
    Iniciar Sessão

    Previsão horária em Nachiczewan

    Hoje, 20 Agosto, Terça-feira

    Tempo Temperatura Precipitação Vento Pressão Humidade
    00:00 +27°C° 0 mm 1 m/s 689 mmHg 23%
    01:00 +27°C° 0 mm 1 m/s 689 mmHg 24%
    02:00 +26°C° 0 mm 1 m/s 689 mmHg 25%
    03:00 +25°C° 0 mm 1 m/s 689 mmHg 26%
    04:00 +25°C° 0 mm 1 m/s 690 mmHg 26%
    05:00 +25°C° 0 mm 1 m/s 690 mmHg 26%
    06:00 +25°C° 0 mm 1 m/s 690 mmHg 26%
    07:00 +27°C° 0 mm 1 m/s 691 mmHg 22%
    08:00 +29°C° 0 mm 1 m/s 691 mmHg 18%
    09:00 +31°C° 0 mm 2 m/s 691 mmHg 15%
    10:00 +34°C° 0 mm 2 m/s 691 mmHg 12%
    11:00 +36°C° 0 mm 2 m/s 691 mmHg 10%
    12:00 +38°C° 0 mm 3 m/s 691 mmHg 8%
    13:00 +39°C° 0 mm 3 m/s 691 mmHg 7%
    14:00 +41°C° 0 mm 4 m/s 690 mmHg 7%
    15:00 +42°C° 0 mm 4 m/s 690 mmHg 6%
    16:00 +41°C° 0 mm 4 m/s 690 mmHg 7%
    17:00 +40°C° 0 mm 5 m/s 690 mmHg 7%
    18:00 +39°C° 0 mm 5 m/s 689 mmHg 8%
    19:00 +35°C° 0 mm 4 m/s 690 mmHg 9%
    20:00 +33°C° 0 mm 4 m/s 690 mmHg 11%
    21:00 +30°C° 0 mm 3 m/s 690 mmHg 13%
    22:00 +29°C° 0 mm 3 m/s 690 mmHg 15%
    23:00 +28°C° 0 mm 2 m/s 689 mmHg 17%

    Amanhã, 21 Agosto, Quarta-feira

    Tempo Temperatura Precipitação Vento Pressão Humidade
    00:00 +27°C° 0 mm 2 m/s 689 mmHg 18%
    01:00 +26°C° 0 mm 2 m/s 689 mmHg 20%
    02:00 +25°C° 0 mm 1 m/s 689 mmHg 22%
    03:00 +24°C° 0 mm 1 m/s 689 mmHg 24%
    04:00 +24°C° 0 mm 1 m/s 689 mmHg 24%
    05:00 +24°C° 0 mm 1 m/s 689 mmHg 25%
    06:00 +24°C° 0 mm 1 m/s 689 mmHg 25%
    07:00 +26°C° 0 mm 1 m/s 689 mmHg 22%
    08:00 +29°C° 0 mm 1 m/s 690 mmHg 19%
    09:00 +31°C° 0 mm 1 m/s 690 mmHg 15%
    10:00 +34°C° 0 mm 2 m/s 690 mmHg 14%
    11:00 +35°C° 0 mm 2 m/s 689 mmHg 12%
    12:00 +37°C° 0 mm 2 m/s 689 mmHg 10%
    13:00 +38°C° 0 mm 3 m/s 689 mmHg 10%
    14:00 +39°C° 0 mm 3 m/s 689 mmHg 9%
    15:00 +42°C° 0 mm 4 m/s 688 mmHg 8%
    16:00 +41°C° 0 mm 4 m/s 688 mmHg 8%
    17:00 +40°C° 0 mm 4 m/s 687 mmHg 9%
    18:00 +39°C° 0 mm 5 m/s 687 mmHg 9%
    19:00 +35°C° 0 mm 4 m/s 687 mmHg 11%
    20:00 +33°C° 0 mm 3 m/s 687 mmHg 12%
    21:00 +30°C° 0 mm 3 m/s 687 mmHg 14%
    22:00 +29°C° 0 mm 3 m/s 687 mmHg 15%
    23:00 +28°C° 0 mm 3 m/s 687 mmHg 16%

    Depois de amanhã, 22 Agosto, Quinta-feira

    Tempo Temperatura Precipitação Vento Pressão Humidade
    00:00 +27°C° 0 mm 2 m/s 687 mmHg 17%
    01:00 +26°C° 0 mm 2 m/s 687 mmHg 18%
    02:00 +25°C° 0 mm 2 m/s 686 mmHg 20%
    03:00 +25°C° 0 mm 1 m/s 686 mmHg 21%
    04:00 +25°C° 0 mm 1 m/s 686 mmHg 22%
    05:00 +24°C° 0 mm 1 m/s 686 mmHg 23%
    06:00 +24°C° 0 mm 1 m/s 686 mmHg 24%
    07:00 +27°C° 0 mm 1 m/s 686 mmHg 21%
    08:00 +29°C° 0 mm 1 m/s 687 mmHg 18%
    09:00 +31°C° 0 mm 1 m/s 687 mmHg 15%
    10:00 +33°C° 0 mm 1 m/s 687 mmHg 13%
    11:00 +36°C° 0 mm 2 m/s 686 mmHg 12%
    12:00 +38°C° 0 mm 2 m/s 686 mmHg 10%
    13:00 +39°C° 0 mm 3 m/s 686 mmHg 9%
    14:00 +42°C° 0 mm 5 m/s 686 mmHg 8%
    15:00 +44°C° 0 mm 6 m/s 685 mmHg 7%
    16:00 +41°C° 0 mm 6 m/s 685 mmHg 8%
    17:00 +40°C° 0 mm 6 m/s 685 mmHg 9%
    18:00 +39°C° 0 mm 6 m/s 685 mmHg 10%
    19:00 +35°C° 0 mm 5 m/s 685 mmHg 13%
    20:00 +32°C° 0 mm 5 m/s 685 mmHg 15%
    21:00 +29°C° 0 mm 4 m/s 685 mmHg 18%
    22:00 +28°C° 0 mm 3 m/s 685 mmHg 19%
    23:00 +27°C° 0 mm 2 m/s 685 mmHg 21%

    23 Agosto, Sexta-feira

    Tempo Temperatura Precipitação Vento Pressão Humidade
    00:00 +26°C° 0 mm 2 m/s 685 mmHg 22%
    01:00 +25°C° 0 mm 1 m/s 685 mmHg 23%
    02:00 +24°C° 0 mm 1 m/s 685 mmHg 24%
    03:00 +23°C° 0 mm 1 m/s 685 mmHg 25%
    04:00 +23°C° 0 mm 1 m/s 685 mmHg 25%
    05:00 +23°C° 0 mm 1 m/s 685 mmHg 26%
    06:00 +21°C° 0 mm 0 m/s 686 mmHg 26%
    07:00 +25°C° 0 mm 1 m/s 686 mmHg 23%
    08:00 +28°C° 0 mm 1 m/s 686 mmHg 20%
    09:00 +30°C° 0 mm 1 m/s 687 mmHg 16%
    10:00 +32°C° 0 mm 1 m/s 687 mmHg 14%
    11:00 +33°C° 0 mm 1 m/s 687 mmHg 13%
    12:00 +35°C° 0 mm 1 m/s 687 mmHg 11%
    13:00 +36°C° 0 mm 1 m/s 686 mmHg 10%
    14:00 +38°C° 0 mm 2 m/s 686 mmHg 9%
    15:00 +39°C° 0 mm 2 m/s 686 mmHg 8%
    16:00 +39°C° 0 mm 2 m/s 686 mmHg 9%
    17:00 +38°C° 0 mm 2 m/s 686 mmHg 10%
    18:00 +38°C° 0 mm 3 m/s 686 mmHg 10%
    19:00 +35°C° 0 mm 3 m/s 686 mmHg 14%
    20:00 +33°C° 0 mm 3 m/s 686 mmHg 17%
    21:00 +29°C° 0 mm 3 m/s 686 mmHg 20%
    22:00 +28°C° 0 mm 2 m/s 686 mmHg 22%
    23:00 +27°C° 0 mm 2 m/s 686 mmHg 25%

    24 Agosto, Sábado

    Tempo Temperatura Precipitação Vento Pressão Humidade
    00:00 +26°C° 0 mm 1 m/s 686 mmHg 27%
    01:00 +25°C° 0 mm 1 m/s 686 mmHg 29%
    02:00 +24°C° 0 mm 1 m/s 685 mmHg 31%
    03:00 +21°C° 0 mm 0 m/s 685 mmHg 33%
    04:00 +21°C° 0 mm 0 m/s 685 mmHg 34%
    05:00 +21°C° 0 mm 0 m/s 686 mmHg 34%
    06:00 +21°C° 0 mm 0 m/s 686 mmHg 35%
    07:00 +26°C° 0 mm 1 m/s 686 mmHg 31%
    08:00 +28°C° 0 mm 1 m/s 687 mmHg 27%
    09:00 +30°C° 0 mm 1 m/s 687 mmHg 23%
    10:00 +32°C° 0 mm 1 m/s 687 mmHg 21%
    11:00 +33°C° 0 mm 1 m/s 687 mmHg 19%
    12:00 +35°C° 0 mm 1 m/s 687 mmHg 16%
    13:00 +36°C° 0 mm 1 m/s 687 mmHg 15%
    14:00 +37°C° 0 mm 1 m/s 686 mmHg 13%
    15:00 +39°C° 0 mm 1 m/s 686 mmHg 11%
    16:00 +38°C° 0 mm 2 m/s 686 mmHg 12%
    17:00 +38°C° 0 mm 2 m/s 686 mmHg 12%
    18:00 +38°C° 0 mm 2 m/s 686 mmHg 12%
    19:00 +35°C° 0 mm 2 m/s 686 mmHg 16%
    20:00 +32°C° 0 mm 2 m/s 687 mmHg 20%
    21:00 +30°C° 0 mm 2 m/s 687 mmHg 24%
    22:00 +29°C° 0 mm 2 m/s 687 mmHg 29%
    23:00 +27°C° 0 mm 2 m/s 687 mmHg 35%

    25 Agosto, Domingo

    Tempo Temperatura Precipitação Vento Pressão Humidade
    00:00 +26°C° 0 mm 2 m/s 687 mmHg 40%
    01:00 +26°C° 0 mm 2 m/s 687 mmHg 43%
    02:00 +25°C° 0 mm 2 m/s 687 mmHg 45%
    03:00 +24°C° 0 mm 2 m/s 687 mmHg 47%
    04:00 +24°C° 0 mm 1 m/s 687 mmHg 48%
    05:00 +24°C° 0 mm 1 m/s 687 mmHg 48%
    06:00 +22°C° 0 mm 0 m/s 688 mmHg 49%
    07:00 +26°C° 0 mm 1 m/s 688 mmHg 44%
    08:00 +27°C° 0 mm 1 m/s 688 mmHg 38%
    09:00 +29°C° 0 mm 2 m/s 688 mmHg 33%
    10:00 +31°C° 0 mm 1 m/s 688 mmHg 29%
    11:00 +32°C° 0 mm 1 m/s 688 mmHg 25%
    12:00 +34°C° 0 mm 1 m/s 688 mmHg 21%
    13:00 +35°C° 0 mm 1 m/s 688 mmHg 19%
    14:00 +36°C° 0 mm 1 m/s 688 mmHg 16%
    15:00 +38°C° 0 mm 2 m/s 688 mmHg 14%
    16:00 +38°C° 0 mm 2 m/s 688 mmHg 14%
    17:00 +37°C° 0 mm 3 m/s 688 mmHg 14%
    18:00 +37°C° 0 mm 3 m/s 689 mmHg 14%
    19:00 +35°C° 0 mm 3 m/s 689 mmHg 19%
    20:00 +33°C° 0 mm 3 m/s 690 mmHg 23%
    21:00 +30°C° 0 mm 3 m/s 690 mmHg 27%
    22:00 +29°C° 0 mm 3 m/s 690 mmHg 31%
    23:00 +28°C° 0 mm 2 m/s 690 mmHg 34%
    Mostrar mais